QPF
0.06 0.06 0.06 0.04 0.02 0.02 0.02 0.02 0.03 0.03 0.03 0.04 0.04 0.03 0.03 0.03 0.03 0.03 0.04 0.07 0.11 0.10 0.09 0.08 0.07 0.05 0.03 0.01 0.01 0.02 0.02 0.03 0.03 0.04 0.04 0.04 0.04 0.03 0.03 0.03 0.02 0.02 0.01 0.01
0.05 0.06 0.06 0.04 0.02 0.01 0.02 0.01 0.02 0.02 0.02 0.03 0.04 0.03 0.02 0.02 0.02 0.03 0.03 0.04 0.06 0.05 0.06 0.07 0.08 0.06 0.05 0.03 0.02 0.01 0.02 0.02 0.03 0.03 0.04 0.05 0.04 0.03 0.02 0.02 0.03 0.03 0.03 0.02
0.05 0.04 0.05 0.06 0.03 0.02 0.02 0.02 0.01 0.02 0.02 0.02 0.03 0.03 0.02 0.01 0.01 0.01 0.01 0.03 0.04 0.03 0.03 0.05 0.07 0.06 0.05 0.04 0.03 0.02 0.01 0.02 0.02 0.03 0.05 0.06 0.07 0.06 0.05 0.04 0.03 0.03 0.04 0.04
0.05 0.04 0.05 0.06 0.05 0.03 0.03 0.02 0.01 0.01 0.02 0.03 0.03 0.03 0.03 0.02 0.01 0.01 0.01 0.02 0.02 0.02 0.02 0.04 0.05 0.06 0.06 0.05 0.04 0.03 0.03 0.03 0.02 0.02 0.04 0.07 0.08 0.10 0.10 0.07 0.05 0.04 0.05 0.05
0.03 0.04 0.04 0.06 0.06 0.04 0.03 0.02 0.02 0.02 0.02 0.02 0.02 0.02 0.02 0.01 0.01 0.01 0.01 0.02 0.02 0.02 0.02 0.02 0.03 0.03 0.05 0.06 0.06 0.06 0.05 0.03 0.03 0.03 0.03 0.04 0.08 0.10 0.11 0.11 0.09 0.08 0.08 0.07
0.02 0.03 0.03 0.04 0.05 0.04 0.03 0.03 0.04 0.04 0.03 0.03 0.01 0.01 0.00 0.00 0.01 0.01 0.01 0.01 0.01 0.01 0.02 0.02 0.02 0.02 0.03 0.04 0.04 0.04 0.03 0.02 0.02 0.02 0.02 0.02 0.03 0.05 0.08 0.09 0.10 0.09 0.09 0.08
0.02 0.02 0.02 0.02 0.03 0.04 0.04 0.04 0.05 0.06 0.06 0.03 0.01 0.00 0.00 0.00 0.00 0.00 0.00 0.00 0.01 0.01 0.01 0.01 0.01 0.01 0.02 0.02 0.02 0.03 0.02 0.02 0.02 0.02 0.01 0.01 0.02 0.02 0.03 0.05 0.07 0.07 0.07 0.07
0.02 0.02 0.02 0.01 0.02 0.03 0.04 0.03 0.04 0.03 0.02 0.01 0.00 0.00 0.00 0.00 0.00 0.00 0.00 0.00 0.01 0.01 0.00 0.00 0.00 0.01 0.01 0.01 0.01 0.01 0.02 0.02 0.02 0.02 0.02 0.02 0.02 0.02 0.03 0.03 0.04 0.06 0.07 0.07
0.01 0.01 0.01 0.01 0.01 0.01 0.03 0.02 0.02 0.02 0.01 0.01 0.00 0.00 0.00 0.00 0.00 0.00 0.00 0.00 0.01 0.01 0.01 0.00 0.00 0.00 0.00 0.01 0.01 0.01 0.01 0.02 0.01 0.02 0.02 0.02 0.02 0.03 0.04 0.04 0.04 0.05 0.05 0.04
0.00 0.01 0.01 0.01 0.01 0.00 0.01 0.01 0.01 0.01 0.01 0.01 0.00 0.00 0.00 0.00 0.00 0.00 0.01 0.01 0.01 0.01 0.00 0.00 0.00 0.00 0.00 0.00 0.00 0.01 0.01 0.01 0.02 0.02 0.02 0.02 0.02 0.03 0.04 0.05 0.05 0.05 0.05 0.04
0.00 0.00 0.00 0.00 0.00 0.01 0.00 0.01 0.01 0.01 0.01 0.01 0.01 0.01 0.01 0.00 0.00 0.00 0.00 0.01 0.02 0.02 0.01 0.01 0.01 0.00 0.00 0.00 0.00 0.00 0.01 0.01 0.01 0.02 0.03 0.02 0.02 0.02 0.02 0.03 0.04 0.04 0.04 0.04
0.00 0.00 0.00 0.00 0.00 0.00 0.00 0.00 0.00 0.00 0.00 0.00 0.01 0.01 0.01 0.01 0.01 0.01 0.01 0.00 0.00 0.01 0.01 0.01 0.01 0.01 0.01 0.00 0.00 0.00 0.01 0.01 0.01 0.01 0.02 0.02 0.03 0.03 0.02 0.02 0.03 0.03 0.04 0.04
0.01 0.01 0.01 0.00 0.00 0.00 0.00 0.00 0.00 0.00 0.00 0.00 0.00 0.00 0.01 0.01 0.01 0.01 0.01 0.01 0.00 0.00 0.01 0.01 0.01 0.02 0.01 0.01 0.00 0.00 0.00 0.01 0.01 0.01 0.01 0.02 0.03 0.04 0.04 0.04 0.04 0.04 0.05 0.06
0.01 0.01 0.01 0.00 0.00 0.00 0.00 0.00 0.00 0.00 0.00 0.00 0.00 0.00 0.00 0.00 0.01 0.01 0.01 0.01 0.00 0.00 0.01 0.01 0.01 0.02 0.01 0.00 0.00 0.00 0.00 0.01 0.01 0.01 0.01 0.01 0.02 0.04 0.05 0.07 0.08 0.07 0.06 0.05
0.00 0.01 0.00 0.00 0.00 0.00 0.00 0.00 0.00 0.00 0.00 0.00 0.00 0.00 0.00 0.00 0.00 0.01 0.01 0.00 0.00 0.01 0.01 0.01 0.01 0.01 0.01 0.01 0.01 0.01 0.01 0.01 0.01 0.01 0.01 0.01 0.02 0.03 0.04 0.05 0.07 0.08 0.09 0.08
0.00 0.00 0.00 0.00 0.00 0.00 0.00 0.01 0.01 0.01 0.00 0.00 0.00 0.00 0.00 0.00 0.00 0.01 0.00 0.00 0.00 0.01 0.01 0.01 0.01 0.01 0.02 0.01 0.01 0.01 0.01 0.01 0.01 0.01 0.01 0.01 0.02 0.01 0.02 0.02 0.04 0.06 0.07 0.08
0.00 0.00 0.00 0.00 0.00 0.00 0.00 0.00 0.00 0.00 0.00 0.00 0.00 0.00 0.00 0.00 0.00 0.00 0.00 0.00 0.00 0.00 0.01 0.01 0.02 0.02 0.02 0.01 0.01 0.01 0.01 0.01 0.01 0.01 0.02 0.02 0.02 0.02 0.02 0.02 0.02 0.03 0.04 0.04
0.00 0.01 0.00 0.00 0.00 0.00 0.00 0.00 0.00 0.00 0.00 0.00 0.00 0.00 0.00 0.00 0.01 0.01 0.00 0.00 0.00 0.00 0.00 0.01 0.02 0.02 0.02 0.01 0.01 0.02 0.02 0.02 0.02 0.02 0.02 0.02 0.01 0.01 0.02 0.02 0.02 0.02 0.02 0.02
0.00 0.00 0.00 0.00 0.00 0.00 0.00 0.00 0.00 0.00 0.00 0.00 0.00 0.00 0.00 0.00 0.00 0.00 0.00 0.00 0.00 0.00 0.00 0.01 0.01 0.01 0.01 0.01 0.02 0.03 0.03 0.03 0.03 0.03 0.02 0.02 0.02 0.02 0.02 0.02 0.02 0.02 0.02 0.02
0.00 0.00 0.00 0.00 0.00 0.00 0.00 0.00 0.00 0.00 0.00 0.00 0.00 0.00 0.00 0.00 0.01 0.01 0.01 0.01 0.00 0.00 0.00 0.00 0.01 0.01 0.01 0.01 0.02 0.03 0.02 0.03 0.03 0.03 0.03 0.03 0.03 0.02 0.02 0.01 0.01 0.01 0.01 0.01
0.00 0.01 0.01 0.00 0.00 0.00 0.00 0.00 0.00 0.00 0.00 0.00 0.00 0.00 0.00 0.00 0.01 0.01 0.01 0.01 0.00 0.00 0.00 0.00 0.00 0.00 0.01 0.01 0.01 0.02 0.02 0.03 0.04 0.04 0.04 0.03 0.02 0.02 0.01 0.01 0.01 0.01 0.00 0.00
0.00 0.00 0.00 0.00 0.00 0.00 0.00 0.00 0.00 0.00 0.00 0.00 0.00 0.00 0.00 0.00 0.00 0.01 0.01 0.01 0.01 0.01 0.01 0.01 0.00 0.01 0.01 0.01 0.01 0.02 0.02 0.03 0.03 0.04 0.03 0.02 0.01 0.01 0.01 0.00 0.00 0.00 0.00 0.00
0.00 0.00 0.00 0.00 0.00 0.00 0.00 0.00 0.00 0.00 0.00 0.00 0.00 0.00 0.00 0.00 0.00 0.00 0.01 0.01 0.01 0.01 0.01 0.01 0.01 0.01 0.01 0.01 0.02 0.02 0.02 0.02 0.02 0.02 0.02 0.01 0.01 0.00 0.00 0.00 0.00 0.00 0.00 0.00
0.00 0.00 0.00 0.00 0.00 0.00 0.00 0.00 0.00 0.00 0.00 0.00 0.00 0.00 0.00 0.00 0.00 0.00 0.00 0.01 0.01 0.01 0.01 0.01 0.01 0.01 0.01 0.01 0.01 0.02 0.01 0.01 0.01 0.01 0.01 0.00 0.00 0.00 0.00 0.00 0.00 0.00 0.00 0.00
0.00 0.00 0.00 0.00 0.00 0.00 0.00 0.00 0.00 0.00 0.00 0.00 0.00 0.00 0.00 0.00 0.00 0.00 0.00 0.00 0.01 0.01 0.01 0.01 0.01 0.01 0.01 0.01 0.00 0.00 0.00 0.00 0.00 0.00 0.00 0.00 0.00 0.00 0.00 0.00 0.00 0.00 0.00 0.00
0.00 0.00 0.00 0.00 0.00 0.00 0.00 0.00 0.00 0.00 0.00 0.00 0.00 0.00 0.00 0.00 0.00 0.00 0.00 0.00 0.00 0.00 0.01 0.01 0.01 0.01 0.00 0.00 0.00 0.00 0.00 0.00 0.00 0.00 0.00 0.00 0.00 0.00 0.00 0.00 0.00 0.00 0.00 0.00
MSLP
1027.55 1028.54 1029.54 1030.48 1031.32 1032.02 1032.59 1033.04 1033.40 1033.73 1034.04 1034.35 1034.67 1034.96 1035.22 1035.40 1035.48 1035.47 1035.36 1035.19 1034.98 1034.79 1034.65 1034.57 1034.58 1034.65 1034.76 1034.89 1035.00 1035.07 1035.09 1035.05 1034.97 1034.88 1034.77 1034.67 1034.59 1034.52 1034.44 1034.34 1034.21 1034.04 1033.83 1033.59
1029.28 1030.09 1030.85 1031.52 1032.08 1032.55 1032.93 1033.25 1033.55 1033.85 1034.16 1034.46 1034.74 1034.98 1035.13 1035.19 1035.14 1035.01 1034.80 1034.57 1034.36 1034.19 1034.10 1034.09 1034.16 1034.28 1034.43 1034.59 1034.72 1034.81 1034.85 1034.87 1034.85 1034.82 1034.79 1034.76 1034.73 1034.68 1034.60 1034.49 1034.33 1034.14 1033.91 1033.67
1030.89 1031.53 1032.07 1032.50 1032.82 1033.08 1033.30 1033.51 1033.74 1034.00 1034.26 1034.50 1034.70 1034.81 1034.82 1034.73 1034.54 1034.28 1034.01 1033.76 1033.57 1033.47 1033.46 1033.55 1033.69 1033.88 1034.07 1034.24 1034.37 1034.48 1034.55 1034.60 1034.64 1034.68 1034.73 1034.76 1034.78 1034.76 1034.69 1034.57 1034.41 1034.20 1033.97 1033.74
1032.25 1032.74 1033.09 1033.33 1033.48 1033.59 1033.70 1033.83 1034.00 1034.19 1034.37 1034.50 1034.55 1034.49 1034.31 1034.03 1033.68 1033.32 1033.00 1032.76 1032.63 1032.63 1032.75 1032.94 1033.18 1033.43 1033.65 1033.83 1033.96 1034.05 1034.12 1034.20 1034.29 1034.39 1034.51 1034.61 1034.69 1034.71 1034.67 1034.56 1034.40 1034.20 1033.98 1033.78
1033.24 1033.60 1033.82 1033.94 1034.00 1034.03 1034.09 1034.19 1034.31 1034.43 1034.51 1034.49 1034.34 1034.05 1033.64 1033.15 1032.63 1032.17 1031.81 1031.61 1031.58 1031.71 1031.96 1032.29 1032.63 1032.94 1033.18 1033.34 1033.44 1033.51 1033.56 1033.64 1033.76 1033.91 1034.09 1034.27 1034.41 1034.49 1034.49 1034.43 1034.29 1034.13 1033.95 1033.79
1033.82 1034.09 1034.24 1034.31 1034.34 1034.38 1034.46 1034.57 1034.68 1034.73 1034.69 1034.49 1034.12 1033.58 1032.91 1032.19 1031.50 1030.93 1030.56 1030.40 1030.48 1030.75 1031.15 1031.61 1032.04 1032.40 1032.65 1032.78 1032.84 1032.85 1032.86 1032.93 1033.06 1033.25 1033.49 1033.73 1033.95 1034.10 1034.18 1034.17 1034.10 1033.99 1033.87 1033.77
1034.03 1034.24 1034.37 1034.45 1034.53 1034.64 1034.80 1034.96 1035.07 1035.08 1034.92 1034.54 1033.93 1033.13 1032.21 1031.27 1030.41 1029.75 1029.36 1029.26 1029.44 1029.85 1030.38 1030.95 1031.46 1031.84 1032.07 1032.16 1032.15 1032.09 1032.06 1032.09 1032.22 1032.44 1032.73 1033.05 1033.35 1033.60 1033.75 1033.83 1033.84 1033.80 1033.75 1033.72
1034.00 1034.17 1034.31 1034.44 1034.62 1034.85 1035.11 1035.35 1035.50 1035.47 1035.20 1034.66 1033.83 1032.80 1031.64 1030.49 1029.49 1028.75 1028.34 1028.29 1028.56 1029.07 1029.71 1030.36 1030.91 1031.29 1031.49 1031.51 1031.42 1031.29 1031.19 1031.19 1031.32 1031.57 1031.91 1032.30 1032.69 1033.03 1033.29 1033.46 1033.55 1033.60 1033.63 1033.65
1033.86 1034.02 1034.18 1034.40 1034.69 1035.05 1035.43 1035.76 1035.94 1035.89 1035.53 1034.84 1033.84 1032.60 1031.25 1029.95 1028.83 1028.03 1027.61 1027.59 1027.92 1028.49 1029.19 1029.87 1030.42 1030.77 1030.91 1030.87 1030.70 1030.49 1030.34 1030.31 1030.44 1030.71 1031.11 1031.58 1032.05 1032.48 1032.84 1033.10 1033.28 1033.41 1033.50 1033.58
1033.76 1033.92 1034.13 1034.43 1034.82 1035.29 1035.76 1036.16 1036.37 1036.29 1035.86 1035.05 1033.92 1032.55 1031.07 1029.66 1028.48 1027.64 1027.21 1027.20 1027.54 1028.14 1028.83 1029.50 1030.01 1030.31 1030.38 1030.25 1030.01 1029.75 1029.56 1029.52 1029.66 1029.97 1030.42 1030.95 1031.50 1032.02 1032.45 1032.79 1033.05 1033.24 1033.39 1033.51
1033.83 1034.00 1034.25 1034.61 1035.07 1035.59 1036.11 1036.53 1036.72 1036.60 1036.11 1035.23 1034.02 1032.57 1031.04 1029.59 1028.39 1027.54 1027.12 1027.10 1027.43 1027.99 1028.64 1029.24 1029.68 1029.89 1029.88 1029.69 1029.40 1029.11 1028.91 1028.87 1029.03 1029.38 1029.88 1030.47 1031.08 1031.66 1032.15 1032.56 1032.87 1033.11 1033.29 1033.43
1034.13 1034.32 1034.59 1034.97 1035.43 1035.95 1036.44 1036.80 1036.93 1036.75 1036.19 1035.26 1034.02 1032.57 1031.06 1029.64 1028.47 1027.65 1027.23 1027.20 1027.49 1027.98 1028.54 1029.04 1029.37 1029.50 1029.42 1029.19 1028.87 1028.58 1028.39 1028.38 1028.58 1028.96 1029.50 1030.13 1030.78 1031.40 1031.93 1032.38 1032.72 1032.99 1033.19 1033.34
1034.66 1034.87 1035.13 1035.47 1035.87 1036.29 1036.67 1036.91 1036.93 1036.64 1036.02 1035.06 1033.83 1032.44 1031.00 1029.67 1028.59 1027.83 1027.43 1027.38 1027.61 1028.01 1028.45 1028.83 1029.06 1029.11 1028.97 1028.71 1028.41 1028.14 1028.00 1028.04 1028.28 1028.70 1029.27 1029.92 1030.58 1031.21 1031.76 1032.22 1032.58 1032.87 1033.09 1033.25
1035.39 1035.59 1035.81 1036.06 1036.32 1036.57 1036.75 1036.80 1036.64 1036.22 1035.51 1034.55 1033.37 1032.07 1030.76 1029.58 1028.62 1027.94 1027.59 1027.53 1027.69 1027.98 1028.31 1028.57 1028.69 1028.67 1028.51 1028.26 1027.99 1027.79 1027.72 1027.82 1028.11 1028.56 1029.14 1029.78 1030.44 1031.05 1031.60 1032.05 1032.43 1032.73 1032.96 1033.14
1036.24 1036.42 1036.54 1036.64 1036.69 1036.70 1036.62 1036.40 1036.02 1035.44 1034.66 1033.69 1032.58 1031.42 1030.28 1029.27 1028.47 1027.91 1027.61 1027.53 1027.64 1027.83 1028.04 1028.19 1028.24 1028.17 1028.01 1027.80 1027.61 1027.49 1027.51 1027.69 1028.02 1028.50 1029.07 1029.70 1030.32 1030.91 1031.42 1031.87 1032.25 1032.56 1032.82 1033.02
1037.12 1037.23 1037.23 1037.12 1036.91 1036.62 1036.23 1035.73 1035.10 1034.35 1033.48 1032.52 1031.50 1030.50 1029.55 1028.74 1028.11 1027.67 1027.43 1027.36 1027.41 1027.52 1027.63 1027.69 1027.68 1027.60 1027.47 1027.33 1027.24 1027.23 1027.35 1027.60 1027.99 1028.48 1029.04 1029.63 1030.21 1030.75 1031.24 1031.67 1032.05 1032.38 1032.67 1032.90
1037.92 1037.92 1037.75 1037.40 1036.91 1036.30 1035.58 1034.78 1033.92 1033.01 1032.07 1031.12 1030.21 1029.37 1028.63 1028.02 1027.56 1027.25 1027.07 1027.01 1027.02 1027.05 1027.08 1027.08 1027.04 1026.97 1026.90 1026.85 1026.87 1026.98 1027.20 1027.54 1027.97 1028.47 1029.01 1029.57 1030.10 1030.60 1031.06 1031.48 1031.86 1032.21 1032.53 1032.79
1038.50 1038.37 1038.00 1037.41 1036.63 1035.71 1034.69 1033.63 1032.55 1031.51 1030.52 1029.62 1028.83 1028.15 1027.60 1027.18 1026.88 1026.69 1026.57 1026.52 1026.49 1026.47 1026.44 1026.40 1026.35 1026.31 1026.31 1026.37 1026.51 1026.74 1027.06 1027.48 1027.95 1028.47 1028.99 1029.51 1030.01 1030.48 1030.91 1031.32 1031.71 1032.07 1032.41 1032.69
1038.75 1038.47 1037.90 1037.07 1036.04 1034.86 1033.59 1032.32 1031.09 1029.96 1028.97 1028.14 1027.46 1026.95 1026.58 1026.33 1026.17 1026.07 1026.01 1025.95 1025.89 1025.83 1025.76 1025.69 1025.65 1025.66 1025.74 1025.90 1026.15 1026.49 1026.91 1027.40 1027.91 1028.44 1028.97 1029.47 1029.94 1030.38 1030.80 1031.21 1031.60 1031.97 1032.31 1032.60
1038.55 1038.11 1037.36 1036.35 1035.11 1033.74 1032.31 1030.90 1029.60 1028.46 1027.50 1026.76 1026.22 1025.86 1025.65 1025.54 1025.49 1025.47 1025.43 1025.38 1025.29 1025.19 1025.08 1025.01 1024.98 1025.04 1025.18 1025.44 1025.79 1026.23 1026.73 1027.28 1027.84 1028.39 1028.92 1029.41 1029.88 1030.32 1030.74 1031.15 1031.54 1031.91 1032.24 1032.50
1037.82 1037.24 1036.35 1035.20 1033.84 1032.37 1030.87 1029.43 1028.13 1027.04 1026.17 1025.55 1025.15 1024.93 1024.85 1024.85 1024.89 1024.91 1024.89 1024.82 1024.71 1024.58 1024.46 1024.37 1024.37 1024.46 1024.67 1024.99 1025.42 1025.94 1026.51 1027.11 1027.70 1028.28 1028.83 1029.34 1029.81 1030.27 1030.70 1031.11 1031.51 1031.86 1032.16 1032.38
1036.55 1035.85 1034.87 1033.64 1032.24 1030.76 1029.29 1027.91 1026.70 1025.72 1024.99 1024.51 1024.24 1024.15 1024.18 1024.27 1024.36 1024.40 1024.39 1024.31 1024.18 1024.02 1023.88 1023.80 1023.81 1023.94 1024.19 1024.56 1025.04 1025.61 1026.22 1026.86 1027.49 1028.09 1028.67 1029.20 1029.71 1030.19 1030.65 1031.08 1031.47 1031.81 1032.07 1032.23
1034.77 1033.98 1032.94 1031.71 1030.36 1028.96 1027.60 1026.36 1025.32 1024.50 1023.93 1023.60 1023.47 1023.50 1023.61 1023.75 1023.87 1023.93 1023.91 1023.81 1023.66 1023.50 1023.36 1023.28 1023.31 1023.46 1023.74 1024.14 1024.65 1025.24 1025.88 1026.53 1027.18 1027.82 1028.42 1028.99 1029.54 1030.06 1030.55 1031.00 1031.40 1031.72 1031.94 1032.05
1032.58 1031.72 1030.68 1029.50 1028.25 1027.01 1025.83 1024.80 1023.97 1023.36 1022.97 1022.80 1022.80 1022.91 1023.08 1023.25 1023.38 1023.44 1023.41 1023.30 1023.15 1022.99 1022.86 1022.80 1022.85 1023.02 1023.31 1023.73 1024.24 1024.83 1025.47 1026.13 1026.80 1027.45 1028.08 1028.70 1029.29 1029.85 1030.38 1030.85 1031.26 1031.57 1031.76 1031.83
1030.13 1029.23 1028.21 1027.13 1026.04 1024.99 1024.05 1023.27 1022.68 1022.28 1022.09 1022.06 1022.16 1022.34 1022.55 1022.73 1022.85 1022.90 1022.86 1022.75 1022.61 1022.46 1022.36 1022.33 1022.40 1022.59 1022.90 1023.31 1023.82 1024.40 1025.03 1025.68 1026.34 1027.01 1027.67 1028.31 1028.95 1029.55 1030.12 1030.62 1031.04 1031.36 1031.54 1031.59
1027.59 1026.66 1025.69 1024.73 1023.82 1023.01 1022.33 1021.81 1021.46 1021.28 1021.26 1021.36 1021.54 1021.76 1021.98 1022.15 1022.25 1022.27 1022.23 1022.12 1022.00 1021.89 1021.82 1021.83 1021.94 1022.15 1022.47 1022.89 1023.39 1023.95 1024.56 1025.20 1025.85 1026.52 1027.19 1027.87 1028.54 1029.18 1029.78 1030.31 1030.76 1031.09 1031.29 1031.34
Thickness
5548 5545 5534 5532 5536 5541 5538 5535 5531 5530 5532 5532 5531 5531 5535 5536 5537 5537 5537 5537 5538 5539 5540 5541 5540 5542 5543 5546 5548 5551 5554 5556 5557 5558 5559 5558 5558 5557 5556 5555 5554 5553 5552 5551
5540 5532 5529 5533 5536 5537 5534 5530 5523 5524 5528 5529 5526 5528 5531 5533 5534 5533 5533 5533 5534 5534 5535 5535 5535 5535 5536 5538 5540 5543 5545 5547 5549 5550 5551 5551 5550 5549 5547 5546 5546 5544 5543 5542
5531 5525 5528 5532 5531 5534 5528 5524 5520 5520 5521 5524 5524 5533 5534 5534 5531 5530 5529 5529 5528 5529 5529 5529 5529 5529 5529 5530 5532 5534 5536 5539 5541 5542 5542 5542 5541 5539 5538 5537 5536 5535 5534 5532
5518 5520 5526 5527 5523 5528 5526 5520 5519 5519 5519 5514 5516 5520 5531 5529 5526 5528 5527 5524 5523 5524 5524 5524 5524 5525 5524 5525 5526 5527 5529 5530 5532 5532 5532 5533 5532 5530 5528 5527 5526 5525 5524 5522
5514 5514 5518 5519 5517 5520 5518 5518 5516 5516 5513 5509 5508 5510 5521 5522 5527 5529 5527 5523 5520 5519 5519 5520 5520 5521 5520 5520 5520 5521 5522 5523 5523 5524 5523 5523 5522 5521 5519 5517 5516 5515 5514 5512
5510 5510 5509 5511 5513 5515 5515 5515 5514 5507 5504 5505 5505 5503 5514 5517 5527 5529 5527 5523 5518 5516 5515 5515 5515 5515 5514 5514 5514 5515 5515 5515 5516 5516 5515 5514 5513 5512 5510 5508 5506 5504 5503 5501
5512 5510 5505 5506 5513 5512 5511 5507 5498 5499 5487 5495 5497 5500 5511 5525 5524 5523 5523 5519 5516 5513 5511 5510 5510 5509 5509 5508 5508 5508 5508 5508 5507 5507 5507 5506 5504 5503 5502 5499 5497 5495 5493 5491
5511 5509 5502 5501 5503 5504 5503 5503 5496 5498 5492 5489 5492 5497 5519 5524 5519 5516 5515 5513 5511 5508 5506 5505 5504 5504 5502 5502 5501 5500 5500 5500 5500 5500 5499 5498 5496 5495 5493 5491 5488 5486 5483 5481
5503 5505 5500 5499 5499 5502 5501 5490 5490 5476 5463 5473 5490 5497 5515 5521 5518 5515 5513 5510 5507 5504 5503 5501 5499 5498 5496 5495 5494 5494 5494 5494 5493 5493 5492 5490 5488 5487 5484 5482 5479 5477 5474 5471
5499 5497 5497 5494 5499 5496 5496 5487 5479 5473 5477 5482 5495 5502 5510 5522 5519 5514 5510 5507 5504 5501 5498 5496 5494 5492 5490 5489 5488 5488 5488 5488 5487 5486 5485 5484 5481 5479 5477 5474 5471 5468 5466 5463
5493 5492 5491 5492 5491 5492 5489 5485 5476 5465 5465 5474 5483 5510 5517 5517 5516 5509 5505 5502 5498 5496 5494 5491 5489 5487 5485 5483 5482 5481 5482 5482 5481 5480 5479 5476 5474 5472 5469 5467 5463 5460 5457 5454
5486 5481 5480 5485 5483 5480 5484 5484 5477 5476 5466 5460 5471 5500 5518 5512 5508 5503 5499 5497 5494 5492 5489 5486 5484 5482 5479 5477 5476 5475 5475 5475 5475 5474 5472 5470 5467 5464 5462 5459 5455 5452 5448 5445
5485 5480 5485 5493 5483 5476 5477 5478 5476 5469 5460 5451 5459 5499 5512 5506 5503 5499 5495 5493 5490 5488 5485 5482 5480 5477 5475 5473 5471 5470 5469 5469 5468 5467 5465 5462 5460 5457 5454 5451 5447 5443 5440 5436
5484 5473 5482 5499 5495 5481 5475 5474 5469 5465 5456 5454 5468 5494 5509 5506 5501 5498 5494 5490 5486 5483 5481 5479 5477 5474 5473 5470 5468 5466 5465 5464 5463 5460 5458 5456 5453 5450 5447 5443 5439 5435 5431 5427
5478 5468 5462 5464 5465 5465 5468 5472 5467 5465 5470 5472 5487 5485 5505 5504 5500 5496 5492 5488 5484 5483 5480 5478 5475 5473 5470 5468 5465 5463 5461 5459 5457 5454 5451 5449 5446 5443 5439 5435 5431 5427 5423 5418
5467 5459 5455 5458 5459 5456 5460 5470 5468 5469 5470 5471 5477 5489 5505 5498 5493 5489 5488 5486 5483 5482 5480 5478 5475 5472 5469 5466 5463 5460 5457 5454 5451 5448 5445 5443 5439 5435 5431 5427 5423 5418 5414 5408
5454 5450 5455 5458 5446 5456 5469 5487 5480 5473 5474 5476 5483 5502 5503 5498 5494 5490 5489 5485 5483 5482 5479 5475 5473 5470 5467 5463 5460 5456 5453 5449 5445 5442 5439 5435 5431 5427 5423 5419 5414 5409 5404 5399
5449 5442 5433 5432 5448 5476 5511 5499 5488 5484 5485 5481 5490 5495 5496 5496 5492 5488 5485 5482 5481 5479 5476 5473 5469 5466 5462 5459 5455 5451 5447 5443 5439 5436 5432 5428 5424 5420 5415 5410 5405 5400 5395 5390
5448 5440 5422 5423 5438 5458 5494 5491 5481 5479 5489 5493 5490 5495 5492 5487 5484 5487 5488 5484 5481 5479 5475 5470 5466 5462 5457 5454 5450 5445 5441 5437 5433 5429 5425 5421 5417 5412 5407 5402 5397 5392 5387 5382
5435 5432 5418 5411 5439 5465 5513 5495 5480 5485 5495 5506 5493 5493 5488 5482 5480 5491 5492 5484 5478 5473 5469 5464 5460 5455 5451 5448 5443 5438 5434 5430 5426 5423 5419 5414 5409 5404 5399 5394 5389 5384 5378 5373
5423 5417 5413 5408 5421 5457 5491 5480 5478 5488 5510 5512 5494 5491 5483 5480 5488 5488 5484 5478 5473 5468 5463 5458 5453 5449 5445 5441 5436 5431 5427 5424 5421 5416 5411 5406 5401 5396 5391 5386 5380 5375 5369 5363
5436 5421 5412 5405 5417 5467 5486 5473 5481 5501 5506 5501 5493 5488 5482 5480 5479 5476 5473 5470 5466 5460 5456 5451 5446 5442 5438 5433 5428 5424 5421 5418 5413 5408 5403 5398 5393 5388 5383 5376 5371 5365 5359 5353
5447 5459 5451 5454 5484 5498 5484 5487 5491 5490 5490 5491 5487 5485 5479 5474 5472 5470 5466 5462 5457 5453 5448 5443 5438 5434 5429 5424 5420 5416 5414 5409 5404 5399 5394 5390 5384 5378 5373 5367 5361 5355 5349 5343
5446 5449 5449 5449 5476 5482 5478 5479 5480 5479 5480 5483 5480 5477 5472 5469 5467 5463 5459 5455 5450 5446 5440 5435 5430 5425 5421 5416 5412 5408 5405 5400 5395 5390 5385 5380 5374 5369 5363 5358 5352 5346 5340 5334
5463 5443 5443 5451 5473 5474 5481 5480 5482 5479 5475 5472 5470 5468 5465 5461 5460 5457 5453 5449 5443 5439 5433 5427 5422 5418 5414 5409 5404 5400 5394 5389 5385 5381 5375 5370 5365 5359 5354 5348 5342 5337 5333 5327
5463 5459 5462 5485 5491 5482 5493 5492 5483 5476 5473 5471 5466 5463 5459 5454 5453 5450 5446 5442 5436 5431 5425 5419 5414 5410 5406 5401 5396 5391 5385 5380 5375 5371 5366 5360 5354 5349 5343 5338 5333 5328 5323 5318